Vorticity
3 4 4 4 4 6 6 8 10 3 7 9 5 3 3 4 5 8 7 7 7 5 4 5 2 2 5 10 10 3 16 7 26 15 8 5 5 6 6 7 9 3 4
6 6 5 4 5 4 4 5 8 8 4 8 7 4 2 4 4 6 7 7 5 6 5 4 5 2 1 7 11 10 2 15 16 35 6 6 5 6 4 5 8 6 5
13 6 4 5 5 5 6 3 4 8 9 4 8 9 2 3 4 6 6 7 6 6 7 4 6 4 2 -0 6 10 3 5 6 7 9 9 7 4 4 10 6 7 12
4 6 11 9 5 6 6 5 4 3 5 8 6 8 5 3 2 5 4 6 6 6 6 6 5 6 5 3 0 4 10 8 3 4 10 -1 5 18 18 13 8 8 6
11 5 9 13 9 7 6 4 4 3 4 2 6 4 19 3 4 2 5 4 6 6 6 4 6 6 7 5 5 3 5 8 11 8 6 4 8 8 7 15 13 18 20
12 16 13 16 25 13 6 6 5 1 3 5 4 5 -0 16 3 3 4 4 6 7 7 5 4 5 6 7 6 6 4 5 7 10 12 6 9 6 10 7 4 9 10
24 20 20 16 17 18 14 11 7 5 7 6 3 7 18 5 9 -1 2 5 4 5 7 7 5 6 6 6 9 7 6 5 0 5 8 7 12 5 10 9 9 8 11
8 5 16 12 12 17 19 22 21 15 16 5 6 2 -13 11 33 3 4 3 6 5 6 8 7 6 5 6 6 8 8 7 6 6 2 2 9 10 9 9 4 4 7
19 17 18 14 22 12 12 11 8 9 15 21 9 6 7 -1 1 18 3 3 6 6 6 7 7 5 6 6 5 5 6 7 8 7 8 7 4 6 8 9 8 9 7
13 8 5 12 16 15 13 12 8 9 7 10 25 12 3 2 -5 26 4 3 3 6 7 6 6 5 6 6 5 5 5 5 6 7 7 6 6 7 5 7 7 2 4
15 25 8 12 5 23 12 10 20 24 19 21 16 26 15 -11 -6 41 -3 2 3 6 6 6 6 4 6 4 5 4 5 5 5 4 5 4 4 5 5 8 5 3 3
18 23 35 14 11 15 -1 -3 19 17 -5 8 25 15 20 13 -19 43 10 1 7 7 6 6 5 6 6 4 6 6 5 4 4 4 4 5 6 5 6 5 5 7 6
17 18 25 24 15 10 19 16 16 6 24 8 18 17 13 27 12 6 -15 21 5 5 6 6 4 5 6 4 5 6 6 6 6 5 5 5 5 5 6 7 6 5 6
0 18 4 13 13 1 23 -5 12 20 21 9 25 14 18 23 15 14 4 58 -3 6 6 5 5 7 7 5 6 5 5 7 6 6 5 5 7 6 6 6 5 6 6
31 15 38 19 51 10 9 18 8 26 12 8 23 2 13 27 38 -0 6 -2 16 3 7 6 4 6 6 5 6 6 6 5 5 6 7 6 6 7 6 7 4 4 11
4 27 5 19 21 18 30 8 17 21 13 4 20 4 19 20 12 18 34 -7 32 -3 7 5 6 6 4 4 6 4 4 4 5 6 6 6 6 6 3 4 1 2 5
16 26 36 33 49 61 27 24 13 18 7 12 11 21 5 1 20 14 10 0 -3 9 -12 14 6 7 5 3 3 4 4 5 5 5 6 4 4 4 2 2 5 4 2
7 28 21 41 22 33 63 46 26 23 16 10 19 16 16 8 10 28 6 -5 -11 -15 -8 -2 16 13 4 5 4 3 4 4 5 4 5 4 4 2 1 1 12 6 7
21 -7 44 49 33 30 22 13 29 29 14 20 24 23 9 0 2 16 25 12 4 -18 62 -61 3 30 9 0 6 2 4 5 5 5 3 2 4 4 5 0 3 7 11
32 24 -1 11 6 18 28 29 23 21 22 22 25 10 9 28 5 31 26 5 -1 1 -3 32 -9 15 17 20 6 2 1 3 6 5 6 6 4 1 4 4 5 8 10
7 -3 24 12 6 1 7 13 16 15 20 4 2 -7 -3 -8 15 32 31 14 19 5 -8 8 12 -3 27 13 25 21 12 10 1 3 6 4 6 5 5 -0 4 -2 13
21 39 42 7 21 5 2 5 9 17 18 19 3 1 9 9 10 17 41 29 -5 21 31 -10 10 71 5 9 32 -23 23 11 13 11 3 0 -2 5 11 6 -2 24 12
20 8 11 37 17 7 -7 26 12 -3 10 9 14 -3 20 30 65 21 32 23 38 29 13 4 -54 18 46 16 -14 2 24 -3 -2 11 0 6 9 6 -1 -1 2 -17 14
1 1 11 6 43 6 31 -9 8 49 31 39 39 36 15 11 10 -3 21 18 40 33 7 24 3 21 3 -13 -37 -4 43 3 33 18 8 -1 11 -9 10 -1 5 19 15
8 6 3 4 13 28 1 11 40 8 14 1 31 33 30 15 -14 7 2 11 7 10 8 -3 44 11 15 10 13 5 -4 16 22 1 16 3 23 4 -3 27 5 17 -9
4 3 3 5 5 1 3 10 4 4 9 17 12 2 5 17 69 39 1 -4 1 3 -1 -3 4 11 11 17 9 18 3 16 17 2 8 3 -15 32 -15 15 -4 26 17
Height
5764 5764 5764 5763 5766 5768 5768 5768 5769 5771 5772 5773 5775 5777 5779 5781 5784 5786 5785 5785 5786 5787 5788 5790 5791 5792 5792 5791 5790 5790 5788 5788 5789 5791 5794 5797 5799 5802 5804 5806 5808 5810 5812
5753 5753 5752 5752 5752 5754 5758 5759 5760 5761 5762 5764 5766 5770 5771 5773 5776 5780 5781 5781 5780 5782 5782 5784 5786 5788 5789 5789 5787 5787 5787 5786 5786 5786 5790 5793 5795 5797 5799 5801 5803 5805 5807
5738 5739 5739 5739 5739 5740 5743 5746 5750 5751 5752 5754 5756 5760 5763 5764 5767 5770 5774 5775 5775 5776 5777 5779 5780 5782 5784 5784 5784 5784 5784 5785 5785 5786 5788 5790 5791 5793 5794 5796 5798 5800 5802
5722 5723 5725 5725 5724 5726 5728 5732 5736 5739 5741 5743 5747 5749 5754 5756 5757 5760 5764 5767 5769 5770 5771 5773 5775 5776 5778 5780 5781 5781 5781 5781 5783 5784 5785 5786 5787 5788 5790 5791 5793 5795 5796
5706 5705 5706 5708 5709 5710 5713 5717 5720 5723 5728 5731 5736 5740 5743 5746 5748 5749 5754 5759 5760 5762 5765 5767 5769 5771 5773 5774 5776 5777 5778 5778 5779 5780 5781 5782 5784 5784 5786 5786 5788 5789 5790
5687 5687 5686 5688 5690 5693 5697 5700 5704 5708 5712 5718 5723 5728 5733 5736 5737 5739 5743 5748 5752 5754 5758 5760 5761 5764 5766 5768 5770 5772 5773 5774 5775 5776 5777 5778 5779 5780 5781 5782 5783 5784 5785
5664 5665 5666 5667 5668 5674 5680 5682 5686 5692 5696 5703 5709 5714 5716 5721 5727 5728 5733 5738 5743 5746 5749 5753 5754 5756 5759 5761 5763 5765 5767 5769 5770 5771 5773 5774 5775 5776 5777 5778 5779 5779 5780
5647 5647 5648 5649 5651 5654 5660 5664 5667 5672 5678 5685 5693 5696 5697 5691 5706 5717 5724 5729 5735 5738 5740 5743 5747 5749 5751 5754 5757 5759 5761 5763 5765 5766 5768 5769 5770 5772 5773 5774 5775 5776 5776
5630 5630 5630 5632 5634 5637 5642 5646 5651 5653 5659 5664 5673 5679 5681 5679 5695 5708 5712 5719 5725 5729 5732 5735 5738 5741 5744 5747 5749 5752 5756 5757 5759 5761 5763 5764 5766 5767 5768 5769 5771 5772 5772
5615 5615 5616 5616 5616 5619 5624 5628 5633 5638 5640 5646 5652 5663 5668 5678 5681 5690 5698 5706 5714 5718 5723 5725 5729 5732 5737 5741 5743 5746 5748 5751 5753 5755 5756 5758 5759 5761 5762 5764 5765 5766 5766
5602 5600 5601 5601 5601 5603 5607 5610 5614 5619 5624 5628 5636 5644 5651 5661 5665 5662 5681 5691 5701 5708 5712 5715 5720 5723 5728 5732 5736 5739 5741 5743 5746 5747 5750 5751 5753 5754 5755 5756 5758 5759 5760
5586 5584 5583 5584 5586 5588 5591 5595 5598 5603 5608 5613 5619 5628 5633 5646 5656 5661 5670 5678 5688 5699 5702 5703 5707 5713 5718 5723 5727 5731 5733 5735 5738 5740 5742 5745 5747 5748 5750 5751 5752 5753 5753
5572 5568 5567 5568 5570 5573 5575 5578 5582 5587 5593 5598 5605 5612 5620 5629 5641 5648 5657 5667 5673 5683 5686 5690 5696 5702 5707 5712 5718 5722 5724 5727 5730 5733 5735 5737 5739 5740 5742 5744 5745 5746 5747
5562 5557 5553 5553 5554 5555 5557 5560 5564 5570 5577 5583 5589 5598 5604 5614 5625 5634 5644 5653 5657 5668 5671 5680 5687 5692 5696 5703 5708 5712 5714 5717 5721 5725 5727 5729 5732 5733 5734 5735 5737 5739 5740
5548 5544 5539 5536 5532 5534 5535 5541 5548 5555 5562 5568 5575 5584 5591 5599 5610 5623 5633 5641 5650 5655 5659 5669 5672 5681 5687 5692 5698 5702 5705 5708 5711 5715 5719 5721 5723 5725 5726 5727 5729 5730 5732
5536 5529 5523 5514 5510 5510 5513 5522 5531 5539 5548 5555 5561 5573 5580 5588 5597 5609 5617 5626 5632 5641 5650 5656 5660 5669 5674 5679 5685 5689 5693 5697 5700 5704 5708 5712 5714 5715 5716 5719 5720 5721 5722
5527 5519 5508 5496 5490 5489 5493 5503 5516 5527 5536 5547 5555 5563 5570 5576 5584 5594 5604 5614 5623 5631 5639 5644 5649 5654 5659 5664 5670 5677 5681 5685 5690 5694 5697 5700 5703 5706 5707 5708 5710 5712 5713
5520 5512 5503 5488 5483 5481 5482 5494 5506 5518 5529 5537 5546 5553 5560 5565 5573 5580 5590 5598 5608 5607 5619 5634 5636 5639 5645 5651 5658 5665 5668 5672 5677 5681 5685 5689 5692 5694 5698 5700 5701 5702 5703
5516 5509 5504 5492 5485 5482 5486 5495 5502 5512 5522 5530 5537 5545 5552 5560 5566 5570 5576 5585 5597 5603 5610 5614 5626 5624 5628 5634 5641 5648 5652 5658 5664 5667 5672 5675 5680 5684 5686 5688 5690 5690 5692
5514 5509 5506 5499 5495 5490 5494 5498 5504 5511 5519 5524 5531 5538 5545 5550 5554 5558 5564 5573 5584 5592 5600 5607 5615 5608 5617 5621 5626 5633 5637 5642 5649 5655 5660 5662 5666 5669 5673 5675 5677 5678 5681
5519 5515 5510 5506 5502 5500 5498 5501 5506 5512 5517 5523 5529 5533 5536 5539 5543 5546 5553 5562 5572 5580 5587 5595 5601 5599 5604 5610 5612 5617 5621 5627 5633 5638 5643 5647 5650 5653 5657 5659 5663 5665 5666
5521 5514 5511 5510 5508 5506 5505 5505 5506 5510 5514 5519 5524 5525 5527 5530 5532 5536 5542 5549 5559 5567 5576 5580 5585 5588 5593 5599 5602 5605 5608 5613 5617 5622 5626 5630 5634 5638 5641 5644 5648 5650 5651
5524 5519 5512 5508 5506 5506 5506 5507 5509 5511 5513 5513 5514 5514 5518 5520 5521 5527 5534 5539 5547 5555 5561 5569 5569 5573 5578 5583 5589 5594 5595 5601 5605 5608 5610 5614 5618 5622 5626 5630 5633 5636 5637
5525 5521 5515 5511 5508 5507 5507 5506 5507 5508 5510 5507 5506 5506 5510 5513 5516 5520 5526 5531 5535 5539 5550 5554 5558 5561 5564 5569 5572 5578 5582 5586 5587 5590 5596 5598 5601 5604 5609 5613 5616 5618 5621
5526 5522 5517 5514 5512 5508 5506 5506 5506 5505 5505 5505 5504 5503 5505 5505 5508 5511 5520 5523 5527 5532 5535 5539 5543 5548 5551 5553 5554 5558 5562 5567 5569 5571 5577 5581 5584 5587 5591 5595 5599 5601 5604
5524 5521 5518 5515 5513 5511 5507 5505 5504 5504 5504 5504 5501 5499 5501 5502 5504 5508 5507 5514 5515 5520 5523 5527 5529 5533 5535 5539 5541 5542 5546 5549 5552 5555 5558 5563 5565 5569 5572 5576 5579 5582 5585